SCP
0 0 0 0 0 0 0 0 0 0 0 0 0 0 0 0 0 0 0 0 0 0 0 0 0 0 0 0 0 0 0 0
0 0 0 0 0 0 0 0 0 0 0 0 0 0 0 0 0 0 0 0 0 0 0 0 0 0 0 0 0 0 0 0
0 0 0 0 0 0 0 0 0 0 0 0 0 0 0 0 0 0 0 0 0 0 0 0 0 0 0 0 0 0 0 0
0 0 0 0 0 0 0 0 0 0 0 0 0 0 0 0 0 0 0 0 0 0 0 0 0 0 0 0 0 0 0 0
0 0 0 0 0 0 0 0 0 0 0 0 0 0 0 0 0 0 0 0 0 0 0 0 0 0 0 0 0 0 0 0
0 0 0 0 0 0 0 0 0 0 0 0 0 0 0 0 0 0 0 0 0 0 0 0 0 0 0 0 0 0 0 0
0 0 0 0 0 0 0 0 0 0 0 0 0 0 0 0 0 0 0 0 0 0 0 0 0 0 0 0 0 0 0 0
0 0 0 0 0 0 0 0 0 0 0 0 0 0 0 0 0 0 0 0 0 0 0 0 0 0 0 0 0 0 0 0
0 0 0 0 0 0 0 0 0 0 0 0 0 0 0 0 0 0 0 0 0 0 0 0 0 0 0 0 0 0 0 0
0 0 0 0 0 0 0 0 0 0 0 0 0 0 0 0 0 0 0 0 0 0 0 0 0 0 0 0 0 0 0 0
0 0 0 0 0 0 0 0 0 0 0 0 0 0 0 0 0 0 0 0 0 0 0 0 0 0 0 0 0 0 0 0
0 0 0 0 0 0 0 0 0 0 0 0 0 0 0 0 0 0 0 0 0 0 0 0 0 0 0 0 0 0 0 0
0 0 0 0 0 0 0 0 0 0 0 0 0 0 0 0 0 0 0 0 0 0 0 0 0 0 0 0 0 0 0 0
0 0 0 0 0 0 0 0 0 0 0 0 0 0 0 0 0 0 0 0 0 0 0 0 0 0 0 0 0 0 0 0
0 0 0 0 0 0 0 0 0 0 0 0 0 0 0 0 0 0 0 0 0 0 0 0 0 0 0 0 0 0 0 0
0 0 0 0 0 0 0 0 0 0 0 0 0 0 0 0 0 0 0 0 0 0 0 0 0 0 0 0 0 0 0 0
0 0 0 0 0 0 0 0 0 0 0 0 0 0 0 0 0 0 0 0 0 0 0 0 0 0 0 0 0 0 0 0
0 0 0 0 0 0 0 0 0 0 0 0 0 0 0 0 0 0 0 0 0 0 0 0 0 0 0 0 0 0 0 0
0 0 0 0 0 0 0 0 0 0 0 0 0 0 0 0 0 0 0 0 0 0 0 0 0 0 0 0 0 0 0 0
0 0 0 0 0 0 0 0 0 0 0 0 0 0 0 0 0 0 0 0 0 0 0 0 0 0 0 0 0 0 0 0
Wind_Speed_500mb
24 30 34 47 56 62 66 67 69 71 73 77 81 85 86 88 89 88 86 84 81 81 77 75 76 75 81 86 87 91 90 84
23 21 22 27 40 47 53 56 61 67 72 77 79 81 83 87 89 89 88 89 86 82 77 73 75 76 79 80 84 89 96 96
22 20 18 17 19 27 39 48 52 57 63 68 71 74 79 83 82 84 84 84 82 80 79 74 74 75 78 79 79 86 83 96
21 21 19 15 11 9 10 10 15 27 41 50 57 63 68 73 75 74 75 77 77 74 75 75 77 77 74 76 83 83 80 85
22 22 18 14 12 10 10 14 18 20 23 28 36 46 56 62 66 68 69 69 69 71 70 70 68 70 71 80 81 73 79 79
26 22 22 20 17 17 16 19 21 25 27 28 32 35 38 41 47 53 56 59 66 66 67 69 73 72 71 72 80 74 81 76
30 26 19 18 21 23 24 27 30 31 31 31 31 30 28 30 33 37 42 51 58 54 54 57 60 61 63 62 61 64 66 69
31 24 24 26 29 28 26 24 26 27 28 28 26 24 24 24 25 28 32 36 38 41 44 49 54 58 63 67 68 66 65 63
30 29 30 28 25 25 26 25 26 27 27 27 26 24 23 22 23 26 28 30 33 35 36 37 36 39 40 42 48 55 54 53
36 35 33 30 27 23 21 20 20 18 18 18 19 20 22 23 25 26 28 29 29 26 25 25 29 34 32 35 41 45 47 45
40 36 33 28 23 19 16 13 10 8 9 10 14 17 21 24 26 27 26 25 21 20 22 27 31 32 33 31 30 35 34 36
38 35 33 29 24 19 15 11 8 4 0 3 7 9 12 16 21 25 26 24 22 20 22 25 29 29 30 28 26 26 28 31
42 41 37 33 28 23 19 17 11 7 5 5 7 9 10 12 13 16 20 22 22 21 19 21 26 27 26 26 24 26 29 31
47 44 41 37 31 25 21 15 11 7 3 1 3 4 5 6 8 9 11 13 16 17 18 21 26 24 26 19 20 22 23 21
52 49 46 40 34 26 22 17 11 7 4 2 2 2 2 2 2 6 7 9 9 10 13 17 19 20 22 23 22 21 19 19
56 51 46 41 35 28 24 18 13 12 11 10 10 9 9 9 10 10 8 7 9 12 14 15 15 19 21 22 23 25 25 29
56 50 45 39 33 26 22 22 18 16 16 15 14 13 13 13 13 13 12 13 14 14 12 12 15 17 18 21 24 26 26 35
54 47 43 39 35 34 33 31 26 19 16 15 15 14 13 13 14 15 14 14 13 14 15 17 16 17 20 22 22 29 33 38
54 49 45 43 42 39 34 31 26 21 20 16 14 14 14 14 15 16 16 17 19 20 21 21 22 23 25 27 25 25 26 32
54 52 49 45 42 40 37 32 27 22 19 16 13 12 12 13 15 17 20 23 24 23 22 24 26 29 30 32 31 30 29 30
Wind_Direction_500mb
235 239 240 238 238 244 245 247 252 255 255 257 259 260 261 263 265 267 268 269 270 271 269 266 264 263 262 258 257 258 258 258
216 220 219 223 229 237 243 246 248 251 254 257 260 263 264 264 266 269 272 274 274 275 274 272 268 266 261 264 265 265 262 259
170 174 176 190 212 230 241 247 250 251 252 253 255 258 261 265 267 268 268 272 275 276 273 272 269 262 264 267 269 273 268 264
158 165 173 177 181 198 218 232 243 249 251 252 253 254 256 257 259 261 265 269 272 273 273 271 268 266 267 268 271 268 276 268
172 175 185 196 206 222 236 240 244 254 260 257 256 255 255 256 257 259 259 260 265 267 270 272 271 273 275 274 274 269 270 277
189 190 194 207 225 242 252 253 254 253 254 253 252 255 256 256 255 255 255 254 256 260 262 266 269 272 271 270 268 279 282 268
202 202 213 236 241 243 237 235 240 246 251 256 258 258 254 249 248 250 253 256 259 261 262 265 267 268 270 273 277 278 282 276
204 220 237 242 243 247 245 245 245 248 252 256 257 256 257 258 259 258 261 266 270 270 270 266 263 262 265 266 267 270 271 273
220 246 258 257 249 242 239 240 241 246 251 254 253 249 248 251 254 256 259 264 269 271 272 273 277 280 277 274 273 273 276 273
238 244 246 242 239 233 231 230 233 238 249 255 255 255 257 261 262 270 275 278 279 284 287 291 286 279 282 278 277 276 274 274
229 230 227 222 216 214 214 222 245 263 276 282 277 273 270 268 269 271 271 274 277 278 282 289 288 283 283 285 285 283 280 272
208 209 206 197 189 184 179 181 177 171 22 347 332 326 309 294 285 286 288 286 280 282 288 289 289 290 287 297 292 284 273 268
196 193 185 175 166 161 153 147 136 108 69 27 5 355 343 330 321 307 301 292 285 278 269 275 284 294 301 299 303 291 285 277
185 180 170 164 157 156 152 147 146 144 139 284 320 324 314 331 333 323 315 306 299 295 296 280 274 281 287 295 304 303 295 277
174 172 165 161 159 162 156 148 145 151 170 202 313 292 297 305 337 18 1 335 317 308 299 285 277 278 275 276 275 275 268 264
170 169 165 158 155 152 142 139 145 149 137 132 121 105 92 90 78 64 63 43 23 358 342 330 315 297 286 280 276 272 265 255
170 170 165 158 153 149 148 144 143 138 125 115 100 85 70 58 56 59 47 38 33 24 22 7 336 320 299 282 271 261 255 265
168 165 161 157 158 154 150 143 132 130 125 118 111 102 88 74 58 45 41 35 26 18 6 358 349 333 321 312 289 267 261 260
166 164 160 158 157 153 149 142 140 137 128 116 98 82 68 55 45 39 31 18 15 5 357 351 343 337 331 323 316 301 287 282
164 161 159 160 158 153 148 142 139 131 125 113 93 73 50 34 25 12 3 353 353 351 346 343 343 339 334 331 324 316 307 303
Wind_Speed_850mb
24 30 34 47 56 62 66 67 69 71 73 77 81 85 86 88 89 88 86 84 81 81 77 75 76 75 81 86 87 91 90 84
23 21 22 27 40 47 53 56 61 67 72 77 79 81 83 87 89 89 88 89 86 82 77 73 75 76 79 80 84 89 96 96
22 20 18 17 19 27 39 48 52 57 63 68 71 74 79 83 82 84 84 84 82 80 79 74 74 75 78 79 79 86 83 96
21 21 19 15 11 9 10 10 15 27 41 50 57 63 68 73 75 74 75 77 77 74 75 75 77 77 74 76 83 83 80 85
22 22 18 14 12 10 10 14 18 20 23 28 36 46 56 62 66 68 69 69 69 71 70 70 68 70 71 80 81 73 79 79
26 22 22 20 17 17 16 19 21 25 27 28 32 35 38 41 47 53 56 59 66 66 67 69 73 72 71 72 80 74 81 76
30 26 19 18 21 23 24 27 30 31 31 31 31 30 28 30 33 37 42 51 58 54 54 57 60 61 63 62 61 64 66 69
31 24 24 26 29 28 26 24 26 27 28 28 26 24 24 24 25 28 32 36 38 41 44 49 54 58 63 67 68 66 65 63
30 29 30 28 25 25 26 25 26 27 27 27 26 24 23 22 23 26 28 30 33 35 36 37 36 39 40 42 48 55 54 53
36 35 33 30 27 23 21 20 20 18 18 18 19 20 22 23 25 26 28 29 29 26 25 25 29 34 32 35 41 45 47 45
40 36 33 28 23 19 16 13 10 8 9 10 14 17 21 24 26 27 26 25 21 20 22 27 31 32 33 31 30 35 34 36
38 35 33 29 24 19 15 11 8 4 0 3 7 9 12 16 21 25 26 24 22 20 22 25 29 29 30 28 26 26 28 31
42 41 37 33 28 23 19 17 11 7 5 5 7 9 10 12 13 16 20 22 22 21 19 21 26 27 26 26 24 26 29 31
47 44 41 37 31 25 21 15 11 7 3 1 3 4 5 6 8 9 11 13 16 17 18 21 26 24 26 19 20 22 23 21
52 49 46 40 34 26 22 17 11 7 4 2 2 2 2 2 2 6 7 9 9 10 13 17 19 20 22 23 22 21 19 19
56 51 46 41 35 28 24 18 13 12 11 10 10 9 9 9 10 10 8 7 9 12 14 15 15 19 21 22 23 25 25 29
56 50 45 39 33 26 22 22 18 16 16 15 14 13 13 13 13 13 12 13 14 14 12 12 15 17 18 21 24 26 26 35
54 47 43 39 35 34 33 31 26 19 16 15 15 14 13 13 14 15 14 14 13 14 15 17 16 17 20 22 22 29 33 38
54 49 45 43 42 39 34 31 26 21 20 16 14 14 14 14 15 16 16 17 19 20 21 21 22 23 25 27 25 25 26 32
54 52 49 45 42 40 37 32 27 22 19 16 13 12 12 13 15 17 20 23 24 23 22 24 26 29 30 32 31 30 29 30
Wind_Direction_850mb
235 239 240 238 238 244 245 247 252 255 255 257 259 260 261 263 265 267 268 269 270 271 269 266 264 263 262 258 257 258 258 258
216 220 219 223 229 237 243 246 248 251 254 257 260 263 264 264 266 269 272 274 274 275 274 272 268 266 261 264 265 265 262 259
170 174 176 190 212 230 241 247 250 251 252 253 255 258 261 265 267 268 268 272 275 276 273 272 269 262 264 267 269 273 268 264
158 165 173 177 181 198 218 232 243 249 251 252 253 254 256 257 259 261 265 269 272 273 273 271 268 266 267 268 271 268 276 268
172 175 185 196 206 222 236 240 244 254 260 257 256 255 255 256 257 259 259 260 265 267 270 272 271 273 275 274 274 269 270 277
189 190 194 207 225 242 252 253 254 253 254 253 252 255 256 256 255 255 255 254 256 260 262 266 269 272 271 270 268 279 282 268
202 202 213 236 241 243 237 235 240 246 251 256 258 258 254 249 248 250 253 256 259 261 262 265 267 268 270 273 277 278 282 276
204 220 237 242 243 247 245 245 245 248 252 256 257 256 257 258 259 258 261 266 270 270 270 266 263 262 265 266 267 270 271 273
220 246 258 257 249 242 239 240 241 246 251 254 253 249 248 251 254 256 259 264 269 271 272 273 277 280 277 274 273 273 276 273
238 244 246 242 239 233 231 230 233 238 249 255 255 255 257 261 262 270 275 278 279 284 287 291 286 279 282 278 277 276 274 274
229 230 227 222 216 214 214 222 245 263 276 282 277 273 270 268 269 271 271 274 277 278 282 289 288 283 283 285 285 283 280 272
208 209 206 197 189 184 179 181 177 171 22 347 332 326 309 294 285 286 288 286 280 282 288 289 289 290 287 297 292 284 273 268
196 193 185 175 166 161 153 147 136 108 69 27 5 355 343 330 321 307 301 292 285 278 269 275 284 294 301 299 303 291 285 277
185 180 170 164 157 156 152 147 146 144 139 284 320 324 314 331 333 323 315 306 299 295 296 280 274 281 287 295 304 303 295 277
174 172 165 161 159 162 156 148 145 151 170 202 313 292 297 305 337 18 1 335 317 308 299 285 277 278 275 276 275 275 268 264
170 169 165 158 155 152 142 139 145 149 137 132 121 105 92 90 78 64 63 43 23 358 342 330 315 297 286 280 276 272 265 255
170 170 165 158 153 149 148 144 143 138 125 115 100 85 70 58 56 59 47 38 33 24 22 7 336 320 299 282 271 261 255 265
168 165 161 157 158 154 150 143 132 130 125 118 111 102 88 74 58 45 41 35 26 18 6 358 349 333 321 312 289 267 261 260
166 164 160 158 157 153 149 142 140 137 128 116 98 82 68 55 45 39 31 18 15 5 357 351 343 337 331 323 316 301 287 282
164 161 159 160 158 153 148 142 139 131 125 113 93 73 50 34 25 12 3 353 353 351 346 343 343 339 334 331 324 316 307 303